SCP
1 1 1 0 0 0 0 0 0 0 0 1 1 0 0 0 0 0 0 0 0 0 0 0 0 0 0 1 1 0 0 0 0 0 0 0 0 0 0 0 0 0 0
0 0 0 0 0 0 0 0 0 0 0 0 0 0 0 0 0 0 0 0 0 1 1 1 0 0 0 0 1 1 1 0 0 0 0 0 0 0 0 0 0 0 0
0 0 0 0 0 0 0 0 0 0 0 0 0 0 0 0 0 0 0 0 0 1 1 1 1 1 1 0 0 1 1 1 1 1 1 0 0 0 0 0 0 0 0
0 0 0 0 0 0 0 0 0 0 0 0 0 0 0 0 0 0 0 0 0 0 1 1 1 1 1 0 0 1 1 1 1 1 1 1 0 0 0 0 0 0 0
0 0 0 0 0 0 0 0 0 0 0 0 0 0 0 0 0 0 0 0 0 0 0 1 1 1 1 1 0 1 1 1 1 1 1 1 1 0 0 0 0 0 0
0 0 0 0 0 0 0 0 0 0 0 0 0 0 0 0 0 0 0 0 0 0 0 0 1 1 1 1 1 1 1 1 1 1 1 1 1 0 0 0 0 0 0
0 0 0 0 0 0 0 0 0 0 0 0 0 0 0 0 0 0 0 0 0 0 0 0 0 1 1 1 1 1 1 1 1 1 1 1 1 0 0 0 0 0 0
0 0 0 0 0 0 0 0 0 0 0 0 0 0 0 0 0 0 0 0 0 0 0 0 0 0 1 1 1 1 1 1 1 1 1 1 1 0 0 0 0 0 0
0 0 0 0 0 0 0 0 0 0 0 0 0 0 0 0 0 0 0 0 0 0 0 0 0 0 0 1 1 1 1 1 1 0 0 0 1 0 0 0 0 0 0
0 0 0 0 0 0 0 0 0 0 0 0 0 0 0 0 0 0 0 0 0 0 0 0 0 0 0 0 0 0 0 0 0 0 0 1 1 1 0 0 0 0 0
0 0 0 0 0 0 0 0 0 0 0 0 0 0 0 0 0 0 0 0 0 0 0 0 0 0 0 0 0 0 0 0 0 0 0 1 1 1 1 0 0 0 0
0 0 0 0 0 0 0 0 0 0 0 0 0 0 0 0 0 0 0 0 0 0 0 0 0 0 0 0 0 0 0 0 0 0 0 0 1 1 1 1 0 0 0
0 0 0 0 0 0 0 0 0 0 0 0 0 0 0 0 0 0 0 0 0 0 0 0 0 0 0 0 0 0 0 0 0 0 0 0 0 0 1 1 1 0 0
0 0 0 0 0 0 0 0 0 0 0 0 0 0 0 0 0 0 0 0 0 0 0 0 0 0 0 0 0 0 0 0 0 0 0 0 0 0 0 0 0 0 0
0 0 0 0 0 0 0 0 0 0 0 0 0 0 0 0 0 0 0 0 0 0 0 0 0 0 0 0 0 0 0 0 0 0 0 0 0 0 0 0 0 0 0
0 0 0 0 0 0 0 0 0 0 0 0 0 0 0 0 0 0 0 0 0 0 0 0 0 0 0 0 0 0 0 0 0 0 0 0 0 0 0 0 0 0 0
0 0 0 0 0 0 0 0 0 0 0 0 0 0 0 0 0 0 0 0 0 0 0 0 0 0 0 0 0 0 0 0 0 0 0 0 0 0 0 0 0 0 0
0 0 0 0 0 0 0 0 0 0 0 0 0 0 0 0 0 0 0 0 0 0 0 0 0 0 0 0 0 0 0 0 0 0 0 0 0 0 0 0 0 0 0
0 0 0 0 0 0 0 0 0 0 0 0 0 0 0 0 0 0 0 0 0 0 0 0 0 0 0 0 0 0 0 0 0 0 0 0 0 0 0 0 0 0 0
0 0 0 0 0 0 0 0 0 0 0 0 0 0 0 0 0 0 0 0 0 0 0 0 0 0 0 0 0 0 0 0 0 0 0 0 0 0 0 0 0 0 0
0 0 0 0 0 0 0 0 0 0 0 0 0 0 0 0 0 0 0 0 0 0 0 0 0 0 0 0 0 0 0 0 0 0 0 0 0 0 0 0 0 0 0
0 0 0 0 0 0 0 0 0 0 0 0 0 0 0 0 0 0 0 0 0 0 0 0 0 0 0 0 0 0 0 0 0 0 0 0 0 0 0 0 0 0 0
0 0 0 0 0 0 0 0 0 0 0 0 0 0 0 0 0 0 0 0 0 0 0 0 0 0 0 0 0 0 0 0 0 0 0 0 0 0 0 0 0 0 0
0 0 0 0 0 0 0 0 0 0 0 0 0 0 0 0 0 0 0 0 0 0 0 0 0 0 0 0 0 0 0 0 0 0 0 0 0 0 0 0 0 0 0
0 0 0 0 0 0 0 0 0 0 0 0 0 0 0 0 0 0 0 0 0 0 0 0 0 0 0 0 0 0 0 0 0 0 0 0 0 0 0 0 0 0 0
0 0 0 0 0 0 0 0 0 0 0 0 0 0 0 0 0 0 0 0 0 0 0 0 0 0 0 0 0 0 0 0 0 0 0 0 0 0 0 0 0 0 0
Wind_Speed
2 1 1 1 2 2 2 2 3 4 5 6 7 8 9 10 9 8 6 14 16 16 18 18 19 21 21 21 21 20 19 19 17 16 16 16 15 15 15 15 14 13 13
1 1 1 1 1 1 2 2 3 4 4 4 7 8 9 9 8 9 8 10 17 16 17 19 19 21 23 23 23 22 21 20 19 18 17 16 15 16 16 15 15 14 13
1 1 1 1 2 2 2 2 3 3 3 4 6 8 8 9 9 10 9 8 9 15 17 18 18 19 22 24 24 23 22 21 20 19 18 17 16 16 16 15 15 14 14
2 1 1 2 2 1 1 2 2 2 3 4 5 6 6 7 10 10 9 9 8 8 13 18 18 18 20 24 25 24 23 22 21 21 20 19 18 17 16 16 15 15 14
3 2 2 2 2 2 2 2 2 2 4 5 5 6 6 7 9 10 11 11 10 9 8 12 17 18 20 23 25 25 23 23 22 22 22 22 21 19 18 17 16 15 15
4 3 2 2 2 2 2 2 3 3 3 5 6 7 6 7 7 9 10 9 9 11 10 10 9 11 18 21 22 23 23 23 23 23 23 23 22 21 20 19 18 17 16
5 3 3 3 2 2 3 3 2 3 3 2 3 4 5 6 7 7 7 7 9 9 9 10 8 7 7 16 20 21 23 24 23 23 23 23 23 22 21 20 19 18 18
5 4 4 3 3 2 3 3 2 2 2 1 2 3 4 4 3 5 6 7 8 6 8 11 9 9 8 6 11 19 21 23 23 24 24 24 23 22 22 21 21 20 19
5 4 4 3 3 1 2 3 2 2 2 2 2 2 3 3 4 3 4 5 5 5 7 7 10 10 10 8 9 15 21 21 24 25 25 24 23 22 22 22 22 21 20
4 4 4 3 3 2 2 3 1 2 2 3 2 3 4 3 3 4 3 2 4 5 7 8 9 10 11 9 11 14 19 20 23 25 25 25 24 23 22 23 23 22 21
4 4 3 3 3 2 2 2 2 2 2 2 2 2 3 3 4 4 5 3 3 3 5 7 7 8 10 10 10 14 18 19 20 22 23 23 24 24 23 23 24 23 22
3 4 4 3 3 3 3 3 2 3 2 3 3 2 2 3 3 3 4 4 4 4 5 5 6 7 7 9 13 17 18 18 18 19 21 21 22 23 23 23 24 23 23
3 4 3 3 3 3 4 3 3 3 3 3 3 3 3 4 3 4 4 4 4 3 3 3 4 5 6 6 9 16 17 18 18 18 18 19 20 21 21 22 22 22 21
4 5 5 4 5 5 4 3 3 3 3 3 4 4 3 4 3 3 3 3 4 3 3 3 2 3 4 5 8 13 10 15 17 17 17 17 18 18 19 19 19 19 18
5 5 5 5 5 5 4 4 3 4 4 4 4 4 3 3 3 3 3 3 3 3 3 3 2 1 1 3 6 7 7 12 15 16 16 16 17 17 17 17 17 16 16
5 5 6 6 6 5 5 4 4 4 5 5 4 4 4 3 3 3 3 4 4 4 4 2 2 2 2 1 2 5 6 10 13 14 15 15 15 16 16 16 16 15 15
6 6 6 6 7 7 6 5 5 5 6 6 5 5 6 5 3 3 3 3 3 3 5 3 2 2 2 0 1 1 2 3 5 11 13 13 13 14 14 15 14 14 14
6 6 7 7 8 7 6 6 7 6 6 7 7 6 7 5 5 4 3 4 4 4 4 5 2 2 1 1 1 2 2 3 3 6 10 11 11 12 12 13 13 13 13
7 7 7 8 8 8 8 7 7 8 7 8 8 8 8 6 6 4 4 5 4 4 4 4 3 1 1 1 2 2 3 3 4 5 7 8 9 10 11 11 12 12 12
7 8 8 8 9 9 9 9 8 8 8 8 8 8 8 8 8 7 5 6 5 5 4 4 3 2 2 1 3 3 3 2 3 4 5 5 7 8 9 10 11 11 11
8 8 8 9 9 8 8 9 8 9 8 9 8 8 9 10 12 9 6 6 5 5 4 4 4 2 2 2 3 3 4 4 3 2 4 3 4 5 5 7 9 10 11
8 8 8 9 9 8 10 13 12 9 9 9 9 9 9 11 13 13 13 12 10 7 7 5 4 4 4 3 3 4 5 5 4 3 4 3 3 4 3 3 7 10 11
8 8 8 9 10 11 14 16 16 11 10 10 10 9 8 8 10 9 10 12 12 13 12 8 7 6 5 4 4 6 6 5 4 5 4 3 3 3 3 4 8 10 11
8 8 9 9 10 11 14 14 15 11 10 10 11 11 10 10 9 9 9 9 9 9 10 9 8 8 6 5 5 5 5 5 4 4 4 4 2 3 3 4 6 9 11
8 8 8 9 10 12 13 14 12 8 8 10 10 10 11 11 12 13 11 10 10 9 10 12 11 10 9 8 6 4 6 7 5 3 2 4 4 3 3 3 5 9 10
8 8 9 9 10 11 13 14 11 6 8 8 8 9 13 13 13 13 11 10 11 10 8 8 9 10 9 8 10 8 7 7 5 4 4 5 5 5 4 2 3 4 7
Wind_Direction
261 255 254 256 262 264 271 282 280 275 266 256 244 239 235 232 231 226 228 233 232 231 232 231 224 217 213 208 204 204 203 201 196 193 192 191 189 188 187 185 184 182 182
264 253 259 274 277 270 264 265 272 275 272 266 258 249 245 241 237 230 225 233 236 232 230 230 229 223 218 213 209 205 204 204 201 197 196 195 193 192 192 191 189 188 187
306 283 276 281 280 279 278 278 282 279 276 268 262 256 252 244 240 234 227 223 230 234 232 230 230 227 222 218 214 209 205 205 203 200 198 197 196 194 195 194 193 192 190
353 335 311 299 303 300 292 290 282 283 276 274 270 264 256 249 244 238 231 226 222 228 231 230 229 228 227 222 218 213 208 206 205 202 200 200 198 197 196 197 196 194 193
3 355 319 307 318 312 294 290 283 264 277 279 276 268 257 250 246 243 236 230 225 223 223 228 230 228 227 225 221 216 211 208 207 205 203 202 202 200 199 198 198 196 195
4 1 330 315 314 297 290 284 282 273 265 274 282 279 268 257 244 238 238 233 227 225 223 224 225 227 226 224 221 219 215 212 210 208 206 205 205 203 201 200 199 199 198
360 5 350 327 317 285 279 283 278 286 279 270 284 288 277 259 247 241 234 232 231 229 225 221 220 219 221 220 219 218 217 215 214 213 211 208 206 205 203 203 202 201 201
352 0 354 332 318 297 299 294 263 277 279 270 269 297 306 308 284 249 234 231 233 230 230 227 219 217 218 213 216 217 218 218 218 217 215 210 208 205 204 205 204 203 204
340 345 349 347 341 327 302 296 269 249 276 282 238 255 287 298 316 291 242 236 235 234 235 232 225 221 219 216 216 218 220 219 219 219 217 212 209 206 204 204 205 205 206
327 334 343 351 355 349 324 306 306 247 255 283 286 250 248 263 287 309 300 252 240 239 236 234 231 223 217 215 215 214 218 220 220 220 219 214 209 205 205 205 206 206 207
319 327 331 345 346 337 328 324 324 293 247 255 268 281 278 265 248 264 288 301 300 260 240 233 229 224 216 214 214 216 215 217 220 219 219 215 211 205 205 207 209 209 208
305 313 318 327 322 318 315 309 303 298 274 261 260 255 258 270 277 266 274 295 299 287 260 237 226 224 219 213 216 215 213 214 216 217 216 213 209 205 205 207 209 211 210
290 294 303 299 299 299 301 302 298 296 283 274 267 261 257 256 264 271 275 283 286 287 281 255 226 224 222 213 215 214 214 211 212 211 210 207 206 204 202 204 207 210 210
270 278 280 279 281 288 296 303 295 290 284 281 278 270 265 266 263 261 264 277 289 284 278 282 262 226 225 216 215 210 214 208 208 207 205 202 201 200 197 198 201 204 206
269 273 276 278 278 276 277 282 278 285 289 280 278 276 267 266 267 260 259 260 267 281 285 286 301 304 256 224 213 207 208 207 204 202 201 200 198 195 193 194 196 199 201
270 279 281 280 278 274 269 262 265 271 275 276 270 274 273 267 270 266 259 257 251 256 270 287 298 312 308 282 203 204 204 198 197 192 191 192 191 190 189 190 193 195 197
276 277 279 282 282 278 270 258 257 261 261 269 273 271 274 273 267 265 260 254 251 249 264 283 276 298 307 41 94 141 148 161 176 183 183 182 182 182 184 186 187 190 192
276 276 278 281 281 278 270 262 266 267 257 261 264 265 269 273 267 260 255 253 251 244 252 274 283 294 315 145 128 120 105 110 122 156 165 167 171 174 177 181 183 185 188
277 279 277 277 279 279 276 270 265 265 259 255 255 254 259 261 264 258 251 253 253 251 241 257 275 279 282 150 129 114 106 101 101 123 134 147 159 165 170 175 179 181 184
274 276 275 274 275 276 275 274 271 268 264 259 252 247 248 247 251 254 251 248 248 249 245 248 257 257 251 177 149 150 142 126 115 105 102 109 130 141 154 164 171 175 178
274 273 277 277 275 273 268 264 263 266 264 263 257 247 243 245 246 243 239 236 233 236 237 239 243 239 234 195 183 160 157 139 110 123 123 114 117 119 130 148 158 162 165
274 275 275 276 276 272 270 270 271 269 266 265 265 257 249 254 256 254 252 244 228 226 228 228 231 229 230 217 189 167 156 159 158 155 132 106 101 104 97 117 139 147 152
276 278 276 274 273 271 269 271 273 271 264 262 261 260 258 252 243 241 248 255 246 235 227 223 230 229 221 215 197 183 176 171 154 151 133 110 93 91 65 84 125 138 143
276 277 278 277 276 275 271 269 273 273 265 261 258 255 254 255 247 238 241 246 245 242 235 231 232 234 228 215 207 197 169 140 112 132 129 121 108 88 70 63 95 124 132
277 275 275 276 275 278 275 271 270 270 264 264 261 257 253 253 245 234 235 241 245 246 242 234 229 231 226 214 196 178 168 163 154 149 119 123 125 101 72 57 64 94 114
276 281 280 276 272 275 276 273 270 260 261 264 264 259 254 251 246 234 232 233 238 239 235 232 226 228 226 217 202 198 186 179 156 152 156 131 137 137 116 70 54 74 88